Home   Weather   Caruaru   Past weeks

Flag for Brazil Past Weather in Caruaru, Pernambuco, Brazil — Yesterday and Last 2 Weeks

Now
81 °F

Passing clouds.


Feels Like: 86 °F
Forecast: 71 / 90 °F
Wind: 6 mph from Northeast

Location: Recife Aeroporto

Current Time: Dec 11, 2016 at 3:06:37 am

Latest Report: Dec 11, 2016 at 2:00 am


Visibility: N/A

Pressure: 29.86 "Hg (28.03 "Hg at 554m altitude)

Humidity: 84%

Dew Point: 75 °F

Location of CaruaruLocation

Past Weather in Caruaru — Graph

°F

Caruaru Temperature Yesterday

Maximum temperature yesterday: 86 °F (at 9:00 am)
Minimum temperature yesterday: 81 °F (at 12:00 am)
Average temperature yesterday: 83 °F

High & Low Weather Summary for the Past Weeks

 TemperatureHumidityPressure
High88 °F (Nov 29, 11:00 am)89% (Nov 27, 2:00 am)29.98 "Hg (Nov 27, 2:00 am)
Low77 °F (Nov 27, 2:00 am)55% (Nov 30, 1:00 pm)29.83 "Hg (Nov 29, 3:00 pm)
Average83 °F74%29.90 "Hg
* Reported Nov 26 2:00 am — Dec 11 2:00 am, Caruaru, Weather by CustomWeather, © 2016

Note: Actual official high and low records may vary slightly from our data, if they occured in-between our weather recording intervals... More about our weather records

Advertising

Caruaru Weather History for the Previous 24 Hours

Scroll right to see more
 ConditionsComfort  
Time TempWeatherWind HumidityBarometerVisibility
2:00 am
Sun, Dec 11
81 °FPassing clouds.6 mph84%29.86 "HgN/A
1:00 am81 °FPassing clouds.5 mph79%29.86 "HgN/A
12:00 am81 °FPassing clouds.6 mph79%29.89 "HgN/A
11:00 pm
Sat, Dec 10
82 °FPassing clouds.6 mph74%29.89 "HgN/A
10:00 pm82 °FPassing clouds.8 mph74%29.92 "HgN/A
9:00 pm81 °FPassing clouds.6 mph79%29.92 "HgN/A
8:00 pm81 °FPassing clouds.7 mph79%29.89 "HgN/A
7:00 pm82 °FPassing clouds.7 mph74%29.89 "HgN/A
6:00 pm82 °FPassing clouds.8 mph74%29.86 "HgN/A
5:00 pm82 °FScattered clouds.9 mph74%29.86 "HgN/A
4:00 pm84 °FScattered clouds.9 mph70%29.86 "HgN/A
3:00 pm86 °FPartly sunny.10 mph70%29.86 "HgN/A
2:00 pm86 °FPassing clouds.10 mph66%29.86 "HgN/A
1:00 pm86 °FPassing clouds.12 mph70%29.89 "HgN/A
12:00 pm86 °FPassing clouds.12 mph66%29.89 "HgN/A
11:00 am86 °FPassing clouds.10 mph66%29.92 "HgN/A
10:00 am86 °FPassing clouds.10 mph66%29.92 "HgN/A
9:00 am86 °FScattered clouds.8 mph66%29.92 "HgN/A
8:00 am84 °FScattered clouds.9 mph70%29.92 "HgN/A
7:00 am82 °FPassing clouds.7 mph74%29.89 "HgN/A
6:00 am82 °FPassing clouds.5 mph74%29.89 "HgN/A
5:00 am81 °FScattered clouds.3 mph79%29.89 "HgN/A
4:00 am81 °FPassing clouds.5 mph74%29.86 "HgN/A
3:00 am81 °FPassing clouds.7 mph79%29.86 "HgN/A
Weather by CustomWeather, © 2016

See weather overviewHow to use our weather pages